Regional Weather Roundup
Issued by NWS

Home | Current Version | Previous Version | Graphics & Text | Print | Product List | Glossary On
Versions: 1 2 3 4 5 6 7 8 9 10 11 12 13 14 15 16 17 18 19 20 21 22 23 24 25 26 27 28 29 30 31 32 33 34 35 36 37 38 39 40 41 42 43 44 45 46 47 48 49 50
000
ASUS43 KLMK 171302
RWRKY
KENTUCKY REGIONAL WEATHER ROUNDUP
NATIONAL WEATHER SERVICE LOUISVILLE KY
900 AM EDT THU AUG 17 2017

NOTE "FAIR" INDICATES FEW OR NO CLOUDS BELOW 12,000 FEET
WITH NO SIGNIFICANT WEATHER AND/OR OBSTRUCTIONS TO VISIBILITY.

KYZ001>023-026-027-061>063-070>075-171400-
WESTERN AND SOUTH CENTRAL KENTUCKY

CITY           SKY/WX    TMP DP  RH WIND       PRES   REMARKS
PADUCAH        PTSUNNY   78  73  84 S8        29.92F
HENDERSON      MOSUNNY   80  76  87 SW13G18   29.92F
OWENSBORO      MOSUNNY   79  75  87 S12       29.94F
HOPKINSVILLE   MOSUNNY   78  74  87 S10       29.98R
BOWLING GREEN  SUNNY     79  76  90 S10       30.00S
GLASGOW        MOSUNNY   77  75  95 SW6       30.02S
$$

KYZ024-025-028>034-038-045-046-053-171400-
NORTH CENTRAL KENTUCKY

CITY           SKY/WX    TMP DP  RH WIND       PRES   REMARKS
LOUISVILLE/SDF MOSUNNY   81  74  79 SW10      29.97S
LOUISVILLE/LOU MOSUNNY   80  76  87 S8        29.97S
FORT KNOX      MOSUNNY   78  74  89 S8        29.97S
$$

KYZ035>037-039>044-047>052-055>060-089>105-171400-
NORTHEAST KENTUCKY

CITY           SKY/WX    TMP DP  RH WIND       PRES   REMARKS
LEXINGTON      SUNNY     78  73  84 SW13      30.02R
COVINGTON      MOSUNNY   77  76  96 SW9       29.97S
FRANKFORT      PTSUNNY   78  74  87 SW8       29.99R
$$

KYZ054-064>069-076>088-106>120-171400-
SOUTHEAST KENTUCKY

CITY           SKY/WX    TMP DP  RH WIND       PRES   REMARKS
JACKSON        MOSUNNY   74  71  91 CALM      30.06S
LONDON         PTSUNNY   76  72  87 SW8       30.06S
SOMERSET       NOT AVBL
MIDDLESBORO    CLOUDY    74  73  99 CALM      30.10R
MONTICELLO     MOSUNNY   81  76  84 NW9       30.07S
$$




USA.gov is the U.S. government's official web portal to all federal, state and local government web resources and services.